Location: Bakov nad Jizerou
(50.4784°N, 14.9394°E)
Time: 16:58:22
(UTC+00:00)

Cosmos 2322 - Pass Details

Date: 27 October 2021
Orbit: 841 x 854 km, 71.0° (Epoch: 04 December)

Event Time Altitude Azimuth Distance (km) Brightness Sun altitude
Exits shadow 01:30:12 22° 27° (NNE) 1,773 5.8 -39.5°
Maximum altitude 01:30:58 23° 38° (NE) 1,745 5.8 -39.4°
Drops below altitude 10° 01:35:25 10° 90° (E) 2,475 6.7 -38.8°
Sets 01:38:23 0° 105° (ESE) 3,405 7.4 -38.4°
